[[{"header":{"parameterUnit":"m.s-1","parameterCategory":1,"la1":30.2991,"la2":30.254,"lo1":-89.0895,"lo2":-89.0444,"dy":0.0017,"dx":0.0017,"nx":28,"ny":28,"refTime":"2025-04-20T03:00:00:Z","depth":0,"parameterNumber":2,"parameterNumberName":"U-component_of_WINDS"},"data":[0,0,0,0,0,0,0,0,0,0,0,0,0,0,0,0,0,0,0,0,0,0,0,0,0,0,0,0,0,0,0,0,0,0,0,0,0,0,0,0,0,0,0,0,0,0,0,0,0,0,0,0,0,0,0,0,0,0,-3.6702,-3.6703,0,-3.6748,-3.6749,-3.675,-3.6718,-3.6716,-3.6715,-3.6714,-3.6761,-3.6764,-3.6766,0,0,0,0,0,0,0,0,0,0,0,0,0,-3.6587,-3.6589,-3.6702,-3.6703,-3.6703,-3.6748,-3.6749,-3.675,-3.6718,-3.6716,-3.6715,-3.6713,-3.676,-3.6763,-3.6767,0,0,0,0,0,0,0,0,0,0,0,0,0,-3.6635,-3.659,-3.6702,-3.6693,-3.6693,-3.6748,-3.6749,-3.675,-3.6719,-3.6716,-3.6714,-3.6712,-3.6759,-3.6763,-3.6767,-3.6834,0,0,-3.6779,-3.6781,0,0,0,0,0,0,0,0,-3.6633,-3.664,-3.6694,-3.6694,-3.6693,-3.6725,-3.6726,-3.6778,-3.6719,-3.6709,-3.6714,-3.6711,-3.6751,-3.6755,-3.6769,-3.6836,-3.6838,-3.6779,-3.6782,-3.6783,-3.6784,0,0,0,0,0,0,0,-3.6629,-3.6637,-3.672,-3.6694,-3.6694,-3.6687,-3.6691,-3.6736,-3.6741,-3.6709,-3.6707,-3.6713,-3.675,-3.6765,-3.677,-3.6839,-3.6779,-3.6783,-3.6785,-3.6787,-3.6964,-3.6967,0,0,0,0,0,0,-3.6627,-3.6635,-3.6719,-3.6722,-3.6657,-3.6691,-3.6696,-3.6717,-3.6741,-3.6742,-3.6715,-3.6712,-3.676,-3.6765,-3.6771,-3.6851,-3.6783,-3.6787,-3.6789,-3.6962,-3.6965,-3.6968,0,0,0,0,0,0,-3.6624,-3.6634,-3.6717,-3.6678,-3.6688,-3.6695,-3.6719,-3.6719,-3.6734,-3.6745,-3.6746,-3.6729,-3.6758,-3.6766,-3.6819,-3.6852,-3.6789,-3.6792,-3.6959,-3.6963,-3.6966,-3.7012,0,0,0,0,0,0,-3.6621,-3.6634,-3.6659,-3.6679,-3.669,-3.6764,-3.6721,-3.6722,-3.6741,-3.6737,-3.6758,-3.676,-3.6757,-3.6813,-3.6823,-3.6857,-3.6795,-3.6956,-3.6961,-3.6965,-3.7007,-3.7016,-3.7024,0,0,0,0,0,-3.6617,-3.667,-3.666,-3.6671,-3.6722,-3.6766,-3.6772,-3.6768,-3.6743,-3.6769,-3.6776,-3.6759,-3.6848,-3.6819,-3.6829,-3.6865,-3.6954,-3.696,-3.6965,-3.7003,-3.7015,-3.7024,0,0,0,0,0,0,-3.6654,-3.6672,-3.6662,-3.6723,-3.6743,-3.676,-3.6792,-3.678,-3.6807,-3.6802,-3.6796,-3.6801,-3.6857,-3.6866,-3.6834,-3.6931,-3.6897,-3.6905,-3.6923,-3.6933,-3.6942,-3.6938,-3.6799,0,0,0,0,0,-3.6669,-3.6703,-3.6717,-3.677,-3.678,-3.6785,-3.6804,-3.6799,-3.6819,-3.6828,-3.6839,-3.686,-3.6892,-3.6914,-3.6944,-3.7009,-3.7013,-3.7039,-3.7047,-3.7054,-3.7061,-3.7096,-3.7107,-3.6985,-3.6985,-3.6985,0,0,-3.6701,-3.6715,-3.6737,-3.6777,-3.6792,-3.6828,-3.6792,-3.6831,-3.6857,-3.6834,-3.6884,-3.6893,-3.6916,-3.6976,-3.7002,-3.6985,-3.7096,-3.7061,-3.7067,-3.7069,-3.7102,-3.7114,-3.7124,-3.6989,-3.6988,-3.6988,0,0,-3.6776,-3.6791,-3.6836,-3.6852,-3.6875,-3.6878,-3.6889,-3.6909,-3.6914,-3.6964,-3.6948,-3.6979,-3.7035,-3.7052,-3.7068,-3.7152,-3.7137,-3.7162,-3.7206,-3.724,-3.725,-3.7258,-3.7288,-3.7298,-3.7169,-3.7169,-3.7169,0,-3.6812,-3.6865,-3.686,-3.6901,-3.6919,-3.69,-3.6946,-3.6962,-3.6994,-3.7007,-3.6988,-3.7058,-3.7073,-3.7135,-3.7156,-3.717,-3.7182,-3.7159,-3.7249,-3.7258,-3.7265,-3.7293,-3.7304,-3.7172,-3.7171,-3.7171,-3.7171,0,-3.6908,-3.6945,-3.6979,-3.701,-3.7033,-3.7076,-3.7078,-3.7101,-3.7095,-3.71,-3.7152,-3.7169,-3.7203,-3.7218,-3.7212,-3.728,-3.7269,-3.725,-3.7215,-3.728,-3.7306,-3.7317,-3.7176,-3.7175,-3.7174,-3.7173,0,0,-3.7006,-3.7036,-3.7048,-3.7062,-3.7088,-3.7116,-3.7159,-3.7192,-3.7212,-3.7235,-3.727,-3.7319,-3.7302,-3.732,-3.7316,-3.7347,-3.7412,-3.7324,-3.7324,-3.7339,-3.7487,-3.7501,-3.7513,-3.7403,-3.7405,-3.7406,-3.7485,0,-3.7082,-3.7156,-3.7154,-3.7222,-3.7256,-3.724,-3.7277,-3.7296,-3.7303,-3.7333,-3.734,-3.7374,-3.7349,-3.736,-3.7389,-3.7397,-3.7441,-3.7392,-3.7435,-3.7436,-3.7428,-3.7527,-3.7541,-3.7615,-3.7495,-3.7497,-3.7498,0,-3.7181,-3.7208,-3.728,-3.73,-3.7314,-3.7347,-3.7378,-3.7407,-3.7429,-3.7432,-3.7453,-3.7445,-3.7488,-3.7453,-3.7513,-3.748,-3.7497,-3.7504,-3.7507,-3.751,-3.747,-3.7531,-3.7638,-3.7649,-3.7515,-3.7513,-3.7512,0,-3.7244,-3.7299,-3.7349,-3.7362,-3.7387,-3.7411,-3.7423,-3.7443,-3.7463,-3.749,-3.7503,-3.7535,-3.7552,-3.7577,-3.7578,-3.7552,-3.7638,-3.7603,-3.7641,-3.7641,-3.7658,-3.7657,-3.7769,-3.7672,-3.7672,-3.7672,-3.7672,0,-3.7329,-3.7373,-3.7377,-3.7408,-3.7458,-3.7455,-3.7505,-3.7514,-3.7533,-3.7565,-3.7553,-3.7584,-3.7583,-3.7615,-3.7616,-3.7665,-3.7673,-3.7677,-3.7676,-3.7677,-3.7676,-3.7687,-3.7682,-3.7675,-3.7674,-3.7673,-3.7673,0,-3.7408,-3.7412,-3.7466,-3.7486,-3.7492,-3.7527,-3.7545,-3.7574,-3.758,-3.7621,-3.7631,-3.764,-3.7676,-3.768,-3.7723,-3.7723,-3.7782,-3.7777,-3.7775,-3.7773,-3.7811,-3.7807,-3.7932,-3.7948,-3.7842,-3.7843,-3.7844,0,-3.7461,-3.7494,-3.7518,-3.7539,-3.7552,-3.7586,-3.7607,-3.7606,-3.7628,-3.7657,-3.7683,-3.7719,-3.7747,-3.7806,-3.7816,-3.7849,-3.7844,-3.7886,-3.7849,-3.7848,-3.7843,-3.7841,-3.7844,-3.7892,-3.7893,-3.7894,-3.7895,0,-3.7554,-3.7555,-3.7585,-3.7617,-3.7642,-3.7666,-3.769,-3.7708,-3.771,-3.7736,-3.7773,-3.7795,-3.7838,-3.7874,-3.7906,-3.7918,-3.7907,-3.7907,-3.7917,-3.7918,-3.7915,-3.7916,-3.7793,-3.7904,-3.7903,-3.7902,-3.7902,-3.7901,-3.7621,-3.7651,-3.7672,-3.7706,-3.7724,-3.7746,-3.7774,-3.7784,-3.7815,-3.785,-3.7849,-3.789,-3.7912,-3.7954,-3.7969,-3.8001,-3.7987,-3.8003,-3.8006,-3.801,-3.8013,-3.7911,-3.8008,-3.8007,-3.8007,-3.8007,-3.8007,0,-3.7714,-3.7727,-3.7758,-3.7791,-3.7818,-3.7806,-3.7831,-3.7855,-3.7891,-3.7913,-3.7941,-3.7984,-3.8019,-3.8032,-3.8066,-3.8089,-3.8085,-3.8098,-3.8096,-3.8099,-3.8024,-3.8011,-3.8101,-3.8101,-3.8101,-3.8101,-3.8101,-3.8101,-3.7765,-3.7814,-3.7817,-3.7875,-3.7888,-3.7928,-3.7943,-3.7964,-3.7981,-3.803,-3.8058,-3.8067,-3.8086,-3.8121,-3.8152,-3.8156,-3.8168,-3.8183,-3.8184,-3.8114,-3.8104,-3.8095,-3.8083,-3.8186,-3.8187,-3.8256,-3.8257,-3.8258]},{"header":{"parameterUnit":"m.s-1","parameterCategory":1,"la1":30.2991,"la2":30.254,"lo1":-89.0895,"lo2":-89.0444,"dy":0.0017,"dx":0.0017,"nx":28,"ny":28,"refTime":"2025-04-20T03:00:00:Z","depth":0,"parameterNumber":3,"parameterNumberName":"V-component_of_WINDS"},"data":[0,0,0,0,0,0,0,0,0,0,0,0,0,0,0,0,0,0,0,0,0,0,0,0,0,0,0,0,0,0,0,0,0,0,0,0,0,0,0,0,0,0,0,0,0,0,0,0,0,0,0,0,0,0,0,0,0,0,3.8637,3.8638,0,3.8724,3.8725,3.8726,3.874,3.8739,3.8739,3.8738,3.8822,3.8825,3.8828,0,0,0,0,0,0,0,0,0,0,0,0,0,3.848,3.8483,3.8637,3.8638,3.8639,3.8724,3.8725,3.8726,3.874,3.8739,3.8738,3.8738,3.8821,3.8824,3.8828,0,0,0,0,0,0,0,0,0,0,0,0,0,3.8556,3.8484,3.8637,3.8657,3.8659,3.8724,3.8725,3.8727,3.874,3.8739,3.8738,3.8737,3.882,3.8824,3.8828,3.8878,0,0,3.8842,3.8844,0,0,0,0,0,0,0,0,3.8551,3.8561,3.8653,3.8655,3.8658,3.872,3.8701,3.8777,3.8741,3.8709,3.8738,3.8737,3.8789,3.8795,3.8814,3.8882,3.8885,3.8842,3.8845,3.8847,3.8848,0,0,0,0,0,0,0,3.8546,3.8558,3.8671,3.8654,3.8658,3.866,3.867,3.8715,3.8754,3.8712,3.8713,3.8724,3.879,3.881,3.8816,3.8886,3.8842,3.8846,3.8849,3.885,3.9001,3.9002,0,0,0,0,0,0,3.8538,3.8553,3.8669,3.8674,3.8601,3.8664,3.8674,3.8701,3.8754,3.8761,3.8725,3.8724,3.8803,3.8811,3.8819,3.8882,3.8847,3.8851,3.8853,3.8999,3.9001,3.9002,0,0,0,0,0,0,3.8535,3.8548,3.8665,3.8614,3.8629,3.8668,3.8698,3.8704,3.8724,3.8763,3.877,3.8738,3.8802,3.8813,3.8864,3.8885,3.8853,3.8857,3.8998,3.9,3.9002,3.9006,0,0,0,0,0,0,3.853,3.8547,3.8567,3.8615,3.8632,3.8709,3.8699,3.8706,3.8732,3.8732,3.8777,3.8784,3.8802,3.8857,3.8868,3.889,3.886,3.8996,3.8999,3.9001,3.9005,3.9008,3.9012,0,0,0,0,0,3.8524,3.8563,3.8567,3.8581,3.8658,3.8711,3.872,3.8742,3.8733,3.8753,3.8779,3.8782,3.8881,3.8862,3.8875,3.8898,3.8995,3.8998,3.9001,3.9003,3.9008,3.9012,0,0,0,0,0,0,3.8514,3.8569,3.8575,3.8631,3.8666,3.8713,3.8739,3.8746,3.8783,3.8782,3.8806,3.8816,3.8866,3.8887,3.8865,3.895,3.8937,3.8943,3.8934,3.8939,3.8943,3.8936,3.8864,0,0,0,0,0,3.8519,3.8558,3.8604,3.8648,3.8666,3.8699,3.8723,3.8737,3.8774,3.8789,3.8818,3.8852,3.8891,3.8916,3.8954,3.9008,3.9018,3.903,3.9034,3.9036,3.9041,3.9073,3.9079,3.9012,3.9012,3.9012,0,0,3.8528,3.8563,3.8586,3.8648,3.8677,3.8717,3.8712,3.8753,3.8783,3.8794,3.8845,3.8868,3.8908,3.8961,3.8986,3.898,3.9062,3.904,3.9042,3.9046,3.9077,3.9083,3.9088,3.9014,3.9014,3.9014,0,0,3.8565,3.8596,3.8637,3.8667,3.8712,3.8734,3.8744,3.8791,3.8807,3.8859,3.8869,3.8903,3.8969,3.8998,3.9021,3.9072,3.9077,3.9084,3.9102,3.9133,3.9138,3.9143,3.9162,3.9168,3.9088,3.9088,3.9088,0,3.857,3.8632,3.8657,3.87,3.8727,3.8741,3.8783,3.881,3.8864,3.8882,3.8876,3.8961,3.8988,3.9049,3.9062,3.908,3.9092,3.9079,3.9135,3.914,3.9145,3.9164,3.9171,3.9089,3.9089,3.9089,3.9088,0,3.8637,3.868,3.8708,3.8763,3.8793,3.8835,3.8865,3.8892,3.8904,3.8927,3.898,3.9014,3.906,3.9075,3.9086,3.9138,3.9133,3.9131,3.9118,3.9152,3.917,3.9177,3.909,3.9089,3.9089,3.9089,0,0,3.867,3.874,3.875,3.8776,3.8827,3.886,3.8903,3.895,3.8973,3.901,3.9047,3.9103,3.9102,3.9129,3.9143,3.9169,3.9209,3.9164,3.9165,3.9172,3.927,3.9272,3.928,3.9213,3.9214,3.9215,3.9267,0,3.8714,3.8793,3.8817,3.8883,3.8923,3.8938,3.8975,3.901,3.9033,3.907,3.9094,3.9134,3.9129,3.9145,3.9172,3.9199,3.9229,3.9195,3.9247,3.9248,3.9237,3.9289,3.9291,3.9339,3.9274,3.9275,3.9276,0,3.8776,3.8818,3.8888,3.8937,3.8954,3.8987,3.9034,3.9068,3.9109,3.9123,3.9154,3.9167,3.9211,3.9197,3.9259,3.9235,3.9257,3.9273,3.9276,3.9282,3.9265,3.9297,3.9354,3.9361,3.9287,3.9286,3.9285,0,3.8795,3.8867,3.8919,3.8941,3.8998,3.9022,3.9046,3.9086,3.9113,3.9153,3.9171,3.9214,3.9238,3.9271,3.9295,3.9282,3.9355,3.9342,3.9369,3.9368,3.9384,3.9382,3.9445,3.9397,3.9397,3.9396,3.9396,0,3.8842,3.8885,3.8929,3.8961,3.9009,3.9036,3.9083,3.9108,3.9144,3.918,3.9195,3.9229,3.9258,3.9295,3.9314,3.9363,3.9373,3.9386,3.9391,3.9386,3.9384,3.9401,3.9399,3.9398,3.9398,3.9398,3.9397,0,3.8871,3.8902,3.896,3.9011,3.9025,3.9058,3.9101,3.9132,3.9156,3.9202,3.9215,3.9251,3.9297,3.9324,3.938,3.9393,3.9448,3.945,3.9435,3.9437,3.9463,3.946,3.9539,3.9551,3.9494,3.9494,3.9495,0,3.89,3.8933,3.8989,3.9015,3.9041,3.9083,3.9112,3.914,3.9169,3.9219,3.9245,3.9291,3.933,3.9402,3.9433,3.9476,3.9481,3.9505,3.9487,3.9481,3.9482,3.948,3.9484,3.9508,3.9509,3.9509,3.951,0,3.8948,3.8962,3.9004,3.9052,3.9087,3.9125,3.9163,3.9184,3.9218,3.925,3.9298,3.9328,3.9388,3.9434,3.9481,3.9505,3.9513,3.9515,3.9524,3.9519,3.9509,3.9516,3.9444,3.9513,3.9513,3.9513,3.9512,3.9512,3.8978,3.901,3.9054,3.9101,3.9133,3.9169,3.9202,3.9231,3.9272,3.9324,3.9337,3.9387,3.9428,3.9492,3.9517,3.9556,3.9552,3.9565,3.9568,3.9571,3.9572,3.9503,3.9565,3.9565,3.9565,3.9564,3.9564,0,3.9028,3.9058,3.9101,3.9156,3.9192,3.9199,3.9242,3.9272,3.9317,3.9355,3.9394,3.9449,3.9494,3.953,3.9576,3.9601,3.9606,3.9612,3.9611,3.9617,3.9572,3.9561,3.9607,3.9607,3.9607,3.9607,3.9607,3.9607,3.9059,3.9113,3.9133,3.9203,3.9232,3.9283,3.9308,3.9341,3.9372,3.9434,3.9472,3.9496,3.9533,3.9583,3.9624,3.9634,3.965,3.9656,3.9666,3.9624,3.9619,3.9615,3.9604,3.9659,3.9659,3.9707,3.9708,3.9708]}]]